星链-4312 (STARLINK-4312 )

导读 | 星芒AI

STARLINK-4312 是 SpaceX Starlink 项目中的一颗低轨通信卫星,属于第四批发射的星链卫星群。该卫星运行在约 550 公里的轨道高度,旨在为全球提供高速互联网接入服务。它采用先进的推进系统和激光通信技术,以提升网络稳定性和减少延迟。STARLINK-4312 与数千颗其他星链卫星共同构建了一个覆盖广泛的卫星互联网网络,特别是在偏远和网络基础设施薄弱地区发挥重要作用。

基本信息
目录编号:
53065
目录名称:
STARLINK-4312
国际标识:
2022-077Y
轨道中心:
EARTH
卫星名称:
星链-4312
卫星全名:
星链-4312 (STARLINK-4312 )
卫星状态:
在轨 (已飞行1259 天)
发射日期:
2022-07-11 UTC
国别 :
美国 (US)
星等 :
--
轨道信息
数据来源 国际轨道数据 AOE轨道数据
星历时间 2025-12-20T19:50:08+0800
18小时前
查看轨道信息
2025-12-20T07:00:00+0800
1天前
查看轨道信息
半长轴 6941.189km 6941.046km
偏心率 0.0000989 0.0001514
轨道倾角 97.600° 97.599°
近地点辐角 93.644° 81.398°
升交点赤经 172.681° 172.160°
平近点角 266.490° 270.303°
近地点 562.365km 561.858km
远地点 563.739km 563.96km
周期 95.920分钟 95.917分钟
每日圈数 15.012465 15.01293
详细信息
固有亮度:
5
最大亮度:
2.5
卫星平台:
Starlink v1.5
覆盖范围:
全球
运营商:
太空探索技术公司
运营商所在国:
美国
制造商(研发单位):
太空探索技术公司
制造商所在国:
美国
使用方式:
暂无
卫星简介
星链(Starlink)计划是由太空探索技术公司(SpaceX)提出的一个巨型低轨卫星互联网星座项目,计划在2019年至2024年间在太空搭建由约1.2万颗卫星组成的“星链”网络,其中1584颗将部署在地球上空550千米处的近地轨道,并从2020年开始工作。该卫星仍在工作。
2D轨道图
3D轨道图
轨道高度分析图
轨道倾角分析图
轨道综合分析图
查看轨道综合分析图